Hourly Data Report for September 29, 2017

All times are specified in Local Standard Time (LST). Add 1 hour to adjust for Daylight Saving Time where and when it is observed.

CHARLOTTETOWN A
PRINCE EDWARD ISLAND

46°17'21.000" N
63°07'09.000" W
48.50 m
8300301
71706
YYG

Download Data

Hourly Data (September 2017)
Hourly Data Report for September 29, 2017
Temp Definition
°C
Dew Point Temp Definition
°C
Rel Hum Definition
%
Wind Dir Definition
10's deg

Wind Spd Definition
km/h
Visibility Definition
km
Stn Press Definition
kPa
Hmdx Definition


Wind Chill Definition


Weather Definition


TIME
00:00 Legend Double Dagger 11.5 5.5 67 30 13 24.1 99.83     LegendNANA
01:00 Legend Double Dagger 10.5 5.7 72 29 13 24.1 99.87     LegendNANA
02:00 Legend Double Dagger 9.9 5.8 75 29 18 24.1 99.88     Mainly Clear
03:00 Legend Double Dagger 9.3 5.3 76 28 16 24.1 99.87     LegendNANA
04:00 Legend Double Dagger 8.8 5.1 77 28 17 24.1 99.91     LegendNANA
05:00 Legend Double Dagger 8.2 4.6 78 28 13 24.1 99.94     Mainly Clear
06:00 Legend Double Dagger 8.4 4.9 78 27 13 24.1 99.98     LegendNANA
07:00 Legend Double Dagger 9.3 5.0 74 29 21 24.1 100.04     LegendNANA
08:00 Legend Double Dagger 9.5 5.4 75 29 14 24.1 100.11     Mostly Cloudy
09:00 Legend Double Dagger 10.0 5.2 72 29 16 24.1 100.16     LegendNANA
10:00 Legend Double Dagger 10.3 5.3 71 32 24 24.1 100.21     LegendNANA
11:00 Legend Double Dagger 10.5 5.7 72 32 29 24.1 100.26     Cloudy
12:00 Legend Double Dagger 9.7 6.8 82 32 29 19.3 100.31     Rain Showers
13:00 Legend Double Dagger 11.0 7.2 77 32 27 24.1 100.35     Rain Showers
14:00 Legend Double Dagger 10.2 8.5 89 32 26 19.3 100.45     Rain Showers
15:00 Legend Double Dagger 9.5 7.8 89 33 28 19.3 100.52     Rain Showers
16:00 Legend Double Dagger 9.1 6.1 81 34 19 24.1 100.61     Rain Showers
17:00 Legend Double Dagger 9.3 4.5 72 33 17 24.1 100.69     Mostly Cloudy
18:00 Legend Double Dagger 8.9 4.7 75 34 18 24.1 100.75     Rain Showers
19:00 Legend Double Dagger 8.6 5.1 78 34 22 19.3 100.83     Rain Showers
20:00 Legend Double Dagger 8.2 5.9 86 35 12 24.1 100.89     Mainly Clear
21:00 Legend Double Dagger 8.4 6.2 86 35 14 19.3 100.94     Rain Showers
22:00 Legend Double Dagger 8.4 7.1 91 34 9 12.9 100.98     Rain Showers
23:00 Legend Double Dagger 8.2 7.0 92 33 10 16.1 101.05     Rain Showers

Notes on Data Quality.

Legend

  • E = Estimated
  • M = Missing
  • NA = Not Available
  • ‡ = Partner data that is not subject to review by the National Climate Archives
Date modified: